EW9311 Weather Reports


Display with metric or nautical units.
time (UTC)temp
F
wind
direction
speed
MPH
gust
MPH
rain 1hr
in
rain 24hr
in
rain mn
in
humidity
%
barometer
mb
20260903110035 44 0 0.0 0.0 0.00 0.00 0.00 80 1021.2
20260903104548 44 0 0.0 0.0 0.00 0.00 0.00 80 1021.2
20260903103038 45 0 0.0 0.0 0.00 0.00 0.00 78 1020.9
20260903101544 46 0 0.0 0.0 0.00 0.00 0.00 77 1020.8
20260903100041 46 0 0.0 0.0 0.00 0.00 0.00 75 1020.8
20260903094534 46 0 0.0 0.0 0.00 0.00 0.00 76 1020.7
20260903093036 46 0 0.0 0.0 0.00 0.00 0.00 76 1020.5
20260903091550 45 0 0.0 0.0 0.00 0.00 0.00 77 1020.4
20260903090035 46 0 0.0 0.0 0.00 0.00 0.00 77 1020.6
20260903084535 46 0 0.0 0.0 0.00 0.00 0.00 77 1020.5
20260903083034 46 0 0.0 0.0 0.00 0.00 0.00 77 1020.4
20260903081537 46 0 0.0 0.0 0.00 0.00 0.00 76 1020.3
20260903080041 47 0 0.0 0.0 0.00 0.00 0.00 76 1020.3
20260903074538 46 0 0.0 0.0 0.00 0.00 0.00 77 1020.0
20260903073037 46 0 0.0 0.0 0.00 0.00 0.00 78 1020.1
20260903071537 46 0 0.0 0.0 0.00 0.00 0.00 80 1019.8
20260903070034 46 0 0.0 0.0 0.00 0.00 0.00 80 1019.7
20260903064534 46 0 0.0 0.0 0.00 0.00 0.00 80 1019.6
20260903063036 46 0 0.0 0.0 0.00 0.00 0.00 80 1019.4
20260903061536 47 0 0.0 0.0 0.00 0.00 0.00 80 1019.4
20260903060044 47 0 0.0 0.0 0.00 0.00 0.00 81 1019.4
20260903054535 48 0 0.0 0.0 0.00 0.00 0.00 80 1018.9
20260903053038 49 0 0.0 0.0 0.00 0.00 0.00 79 1018.9
20260903051538 50 0 0.0 0.0 0.00 0.00 0.00 78 1018.6
20260903050043 51 0 0.0 0.0 0.00 0.00 0.00 75 1018.4
20260903044533 53 0 0.0 0.0 0.00 0.00 0.00 72 1018.3
20260903043033 55 0 0.0 0.0 0.00 0.00 0.00 68 1018.2
20260903041537 57 0 0.0 0.0 0.00 0.00 0.00 60 1018.0
20260903040035 58 0 0.0 0.0 0.00 0.00 0.00 58 1017.8
20260903034536 58 0 0.0 0.0 0.00 0.00 0.00 57 1017.8
20260903033035 58 0 0.0 1.0 0.00 0.00 0.00 56 1017.9
20260903031540 60 0 0.0 1.0 0.00 0.00 0.00 53 1017.6
20260903030046 59 0 0.0 1.0 0.00 0.00 0.00 54 1017.4
20260903024536 59 0 0.0 0.0 0.00 0.00 0.00 53 1017.3
20260903023034 60 0 0.0 2.0 0.00 0.00 0.00 55 1017.3
20260903021542 60 0 0.0 1.0 0.00 0.00 0.00 53 1017.4
20260903020037 60 0 0.0 0.0 0.00 0.00 0.00 53 1017.3
20260903014542 60 0 0.0 0.0 0.00 0.00 0.00 54 1017.1
20260903013037 60 0 0.0 0.0 0.00 0.00 0.00 55 1017.1
20260903011546 60 0 0.0 3.0 0.00 0.00 0.00 46 1017.0
20260903010035 60 0 0.0 0.0 0.00 0.00 0.00 47 1017.0
20260903004538 60 0 0.0 5.0 0.00 0.00 0.00 47 1016.8
20260903003036 60 0 0.0 0.0 0.00 0.00 0.00 47 1016.9
20260903001533 60 0 0.0 1.0 0.00 0.00 0.00 49 1016.8
20260903000045 59 0 0.0 0.0 0.00 0.00 0.00 47 1016.5
20260902234534 59 0 0.0 3.0 0.00 0.00 0.00 46 1016.5
20260902233046 58 0 0.0 12.0 0.00 0.00 0.00 47 1016.5
20260902231535 58 0 0.0 2.0 0.00 0.00 0.00 46 1016.2
20260902230034 58 0 0.0 9.0 0.00 0.00 0.00 49 1016.2
20260902224534 58 0 0.0 6.0 0.00 0.00 0.00 48 1016.0
20260902223039 58 0 0.0 9.0 0.00 0.00 0.00 48 1015.8
20260902221537 58 0 0.0 8.0 0.00 0.00 0.00 47 1015.7
20260902220043 58 0 0.0 10.0 0.00 0.00 0.00 49 1015.5
20260902214554 58 0 0.0 3.0 0.00 0.00 0.00 48 1015.3
20260902213034 57 42 1.0 12.0 0.00 0.00 0.00 47 1015.1
20260902211535 57 0 0.0 9.0 0.00 0.00 0.00 50 1015.1
20260902210036 57 0 0.0 9.0 0.00 0.00 0.00 52 1015.1
20260902204536 56 0 0.0 10.0 0.00 0.00 0.00 51 1014.9
20260902203038 56 0 0.0 11.0 0.00 0.00 0.00 52 1014.9
20260902201541 56 0 0.0 11.0 0.00 0.00 0.00 55 1015.0
20260902200033 55 58 0.0 12.0 0.00 0.00 0.00 57 1014.7
20260902194533 54 54 0.0 8.0 0.00 0.00 0.00 58 1014.6
20260902193037 54 0 0.0 1.0 0.00 0.00 0.00 57 1014.4
20260902191541 54 0 0.0 0.0 0.00 0.00 0.00 65 1014.4
20260902190035 53 0 0.0 2.0 0.00 0.00 0.00 67 1014.3
20260902184540 53 0 0.0 0.0 0.00 0.00 0.00 67 1014.2
20260902183042 52 0 0.0 0.0 0.00 0.00 0.00 74 1013.9
20260902181536 51 0 0.0 0.0 0.00 0.00 0.00 71 1013.8
20260902180036 51 0 0.0 0.0 0.00 0.00 0.00 72 1013.7
20260902174546 51 0 0.0 0.0 0.00 0.00 0.00 74 1013.6
20260902173056 49 0 0.0 0.0 0.00 0.00 0.00 78 1013.2
20260902171541 45 0 0.0 0.0 0.00 0.00 0.00 84 1013.2
20260902170036 43 0 0.0 0.0 0.00 0.00 0.00 86 1013.1
20260902164534 41 0 0.0 0.0 0.00 0.00 0.00 87 1012.8
20260902163036 39 0 0.0 0.0 0.00 0.00 0.00 89 1012.7
20260902161533 38 0 0.0 0.0 0.00 0.00 0.00 90 1012.4
20260902160050 37 0 0.0 0.0 0.00 0.00 0.00 91 1012.1
20260902154543 35 0 0.0 0.0 0.00 0.00 0.00 91 1012.0
20260902153040 35 0 0.0 0.0 0.00 0.00 0.00 90 1011.9
20260902151533 35 0 0.0 0.0 0.00 0.00 0.00 90 1011.8
20260902150035 35 0 0.0 0.0 0.00 0.00 0.00 90 1011.6
20260902144536 35 0 0.0 0.0 0.00 0.00 0.00 90 1011.6
20260902143038 35 0 0.0 0.0 0.00 0.00 0.00 90 1011.5
20260902141533 35 0 0.0 0.0 0.00 0.00 0.00 89 1011.3
20260902140034 36 0 0.0 0.0 0.00 0.00 0.00 89 1011.2
20260902134536 36 0 0.0 0.0 0.00 0.00 0.00 88 1011.0
20260902133040 36 0 0.0 0.0 0.00 0.00 0.00 87 1010.9
20260902131535 38 0 0.0 0.0 0.00 0.00 0.00 85 1010.9
20260902130035 38 0 0.0 0.0 0.00 0.00 0.00 85 1010.7
20260902124535 37 0 0.0 0.0 0.00 0.00 0.00 85 1010.5
20260902123045 37 0 0.0 0.0 0.00 0.00 0.00 86 1010.3
20260902121534 38 0 0.0 0.0 0.00 0.00 0.00 85 1010.3
20260902120037 39 0 0.0 0.0 0.00 0.00 0.00 83 1010.3
20260902114541 39 0 0.0 0.0 0.00 0.00 0.00 82 1010.5
20260902113034 40 0 0.0 0.0 0.00 0.00 0.00 82 1010.2
20260902111543 39 0 0.0 0.0 0.00 0.00 0.00 84 1010.2